Weather History for Chester, SC

Change the Weather History Date:

Wednesday, October 12, 2011

  Actual Average (KUZA) Record (KUZA)
Temperature  
Mean Temperature 64 °F -  
Max Temperature 68 °F 74 °F 86 °F (1949)
Min Temperature 59 °F 50 °F 37 °F (2000)
Degree Days  
Heating Degree Days 2    
Growing Degree Days 14 (Base 50)    
Moisture  
Dew Point 62 °F    
Average Humidity 98    
Maximum Humidity 100    
Minimum Humidity 88    
Precipitation  
Precipitation 0.33 in - - ()
Sea Level Pressure  
Sea Level Pressure 29.84 in    
Wind  
Wind Speed 4 mph (North)    
Max Wind Speed 8 mph    
Max Gust Speed -    
Visibility 6 miles    
Events Rain , Thunderstorm    
Averages and records for this station are not official NWS values.
T = Trace of Precipitation, MM = Missing Value Source: NWS Daily Summary

Daily Weather History Graph

Daily Weather History Graph

Search for Another Location

Airport:

Trip Planner

Search our weather history database for the weather conditions in past years. The results will help you decide how hot, cold, wet, or windy it might be!

Date:

Astronomy

Oct. 12, 2011 Rise Set
Actual Time 7:27 AM EDT 6:54 PM EDT
Civil Twilight 7:02 AM EDT 7:19 PM EDT
Nautical Twilight 6:33 AM EDT 7:48 PM EDT
Astronomical Twilight 6:03 AM EDT 8:18 PM EDT
Moon 7:00 PM EDT (10/12) 7:57 AM EDT (10/12)
Length of Visible Light 12h 17m
Length of Day
11h 26m
Full, 100% of the Moon is Illuminated
Oct 12
Full
Oct 19
Last Quarter
Oct 26
New
Nov 2
First Quarter
Nov 10
Full

Hourly Weather History & Observations

Time (EDT) Temp. Dew Point Humidity Pressure Visibility Wind Dir Wind Speed Gust Speed Precip Events Conditions
12:15 AM 59.0 °F 59.0 °F 100% 29.92 in 4.0 mi NNW 4.6 mph - N/A Rain Light Rain
12:35 AM 59.0 °F 59.0 °F 100% 29.91 in 2.5 mi North 4.6 mph - 0.01 in Rain Rain
12:55 AM 59.0 °F 59.0 °F 100% 29.90 in 3.0 mi NNW 4.6 mph - 0.03 in Rain , Thunderstorm Light Thunderstorms and Rain
1:15 AM 59.0 °F 59.0 °F 100% 29.90 in 3.0 mi NW 3.5 mph - N/A Rain , Thunderstorm Light Thunderstorms and Rain
1:35 AM 59.0 °F 59.0 °F 100% 29.89 in 3.0 mi NW 4.6 mph - 0.01 in Rain Light Rain
1:55 AM 59.0 °F 59.0 °F 100% 29.89 in 3.0 mi NNW 5.8 mph - 0.01 in Rain Light Rain
2:15 AM 59.0 °F 59.0 °F 100% 29.88 in 3.0 mi North 8.1 mph - N/A Rain Light Rain
2:35 AM 59.0 °F 59.0 °F 100% 29.88 in 4.0 mi NNW 5.8 mph - N/A Rain , Thunderstorm Light Thunderstorms and Rain
2:55 AM 59.0 °F 59.0 °F 100% 29.88 in 4.0 mi NNW 5.8 mph - 0.01 in Rain Rain
3:35 AM 59.0 °F 59.0 °F 100% 29.87 in 2.0 mi NNW 4.6 mph - 0.19 in Rain , Thunderstorm Heavy Thunderstorms and Rain
3:55 AM 59.0 °F 59.0 °F 100% 29.87 in 7.0 mi NW 4.6 mph - 0.24 in Rain , Thunderstorm Thunderstorms and Rain
4:15 AM 59.0 °F 59.0 °F 100% 29.86 in 7.0 mi North 6.9 mph - 0.01 in Rain Light Rain
4:35 AM 59.0 °F 59.0 °F 100% 29.86 in 10.0 mi North 4.6 mph - 0.01 in Rain Rain
5:15 AM 59.0 °F 59.0 °F 100% 29.85 in 10.0 mi North 4.6 mph - N/A Rain Rain
5:35 AM 59.0 °F 59.0 °F 100% 29.85 in 10.0 mi North 5.8 mph - 0.01 in Rain Light Rain
5:55 AM 59.0 °F 59.0 °F 100% 29.86 in 10.0 mi NNW 4.6 mph - 0.02 in Rain , Thunderstorm Light Thunderstorms and Rain
6:35 AM 59.0 °F 59.0 °F 100% 29.86 in 10.0 mi North 6.9 mph - 0.01 in Thunderstorm Overcast
6:55 AM 59.0 °F 59.0 °F 100% 29.86 in 10.0 mi North 8.1 mph - 0.01 in Rain Rain
7:35 AM 59.0 °F 59.0 °F 100% 29.87 in 10.0 mi North 8.1 mph - N/A   Light Drizzle
7:55 AM 59.0 °F 59.0 °F 100% 29.87 in 10.0 mi North 5.8 mph - N/A Rain Light Rain
8:15 AM 59.0 °F 59.0 °F 100% 29.88 in 10.0 mi North 3.5 mph - N/A   Overcast
8:35 AM 59.0 °F 59.0 °F 100% 29.88 in 7.0 mi NNE 4.6 mph - N/A   Overcast
8:55 AM 59.0 °F 59.0 °F 100% 29.89 in 10.0 mi Calm Calm - N/A   Overcast
9:15 AM 60.8 °F 60.8 °F 100% 29.89 in 7.0 mi ENE 3.5 mph - N/A   Overcast
9:35 AM 60.8 °F 60.8 °F 100% 29.89 in 7.0 mi Calm Calm - N/A   Overcast
9:55 AM 60.8 °F 60.8 °F 100% 29.88 in 5.0 mi North 5.8 mph - N/A   Overcast
10:35 AM 62.6 °F 62.6 °F 100% 29.87 in 7.0 mi NNE 5.8 mph - N/A   Overcast
11:15 AM 64.4 °F 62.6 °F 94% 29.86 in 7.0 mi North 4.6 mph - N/A   Overcast
11:35 AM 64.4 °F 64.4 °F 100% 29.85 in 7.0 mi Calm Calm - N/A   Overcast
11:55 AM 64.4 °F 64.4 °F 100% 29.86 in 7.0 mi NNW 3.5 mph - N/A   Overcast
12:15 PM 64.4 °F 64.4 °F 100% 29.86 in 10.0 mi NW 6.9 mph - N/A   Overcast
12:35 PM 64.4 °F 64.4 °F 100% 29.84 in 7.0 mi North 4.6 mph - N/A   Overcast
12:55 PM 68.0 °F 64.4 °F 88% 29.83 in 7.0 mi ENE 3.5 mph - N/A   Overcast
1:15 PM 68.0 °F 64.4 °F 88% 29.83 in 7.0 mi East 3.5 mph - N/A   Overcast
1:35 PM 68.0 °F 64.4 °F 88% 29.82 in 7.0 mi Calm Calm - N/A   Overcast
1:55 PM 68.0 °F 64.4 °F 88% 29.82 in 7.0 mi East 4.6 mph - N/A   Overcast
2:15 PM 68.0 °F 64.4 °F 88% 29.81 in 7.0 mi ENE 3.5 mph - N/A   Overcast
2:35 PM 68.0 °F 64.4 °F 88% 29.81 in 10.0 mi Calm Calm - N/A   Overcast
3:35 PM 68.0 °F 66.2 °F 94% 29.80 in 5.0 mi Calm Calm - N/A   Overcast
3:55 PM 68.0 °F 66.2 °F 94% 29.80 in 7.0 mi South 4.6 mph - N/A   Overcast
4:15 PM 68.0 °F 66.2 °F 94% 29.80 in 7.0 mi Calm Calm - N/A   Overcast
4:35 PM 68.0 °F 66.2 °F 94% 29.79 in 5.0 mi SSE 3.5 mph - N/A   Overcast
4:55 PM 68.0 °F 66.2 °F 94% 29.79 in 5.0 mi South 3.5 mph - N/A   Overcast
5:35 PM 68.0 °F 66.2 °F 94% 29.79 in 5.0 mi Calm Calm - N/A   Overcast
5:55 PM 68.0 °F 66.2 °F 94% 29.79 in 5.0 mi Calm Calm - N/A   Overcast
6:15 PM 68.0 °F 66.2 °F 94% 29.79 in 7.0 mi Calm Calm - N/A   Overcast
6:35 PM 68.0 °F 66.2 °F 94% 29.79 in 5.0 mi Calm Calm - N/A   Overcast
7:15 PM 66.2 °F 66.2 °F 100% 29.79 in 7.0 mi Calm Calm - N/A   Overcast
7:35 PM 66.2 °F 66.2 °F 100% 29.79 in 7.0 mi Calm Calm - N/A   Overcast
7:55 PM 66.2 °F 66.2 °F 100% 29.79 in 7.0 mi Calm Calm - N/A   Overcast
8:15 PM 66.2 °F 66.2 °F 100% 29.80 in 5.0 mi Calm Calm - N/A   Overcast
8:35 PM 64.4 °F 64.4 °F 100% 29.80 in 5.0 mi Calm Calm - N/A   Overcast
8:55 PM 64.4 °F 64.4 °F 100% 29.80 in 5.0 mi Calm Calm - N/A   Overcast
9:15 PM 64.4 °F 64.4 °F 100% 29.80 in 5.0 mi Calm Calm - N/A   Overcast
9:35 PM 64.4 °F 64.4 °F 100% 29.80 in 5.0 mi Calm Calm - N/A   Overcast
9:55 PM 64.4 °F 64.4 °F 100% 29.80 in 3.0 mi Calm Calm - N/A   Overcast
10:15 PM 64.4 °F 64.4 °F 100% 29.81 in 3.0 mi Calm Calm - N/A   Overcast
10:35 PM 64.4 °F 64.4 °F 100% 29.81 in 4.0 mi Calm Calm - N/A   Overcast
10:55 PM 64.4 °F 64.4 °F 100% 29.81 in 3.0 mi Calm Calm - N/A   Overcast
11:15 PM 64.4 °F 64.4 °F 100% 29.81 in 4.0 mi Calm Calm - N/A   Overcast
11:35 PM 64.4 °F 64.4 °F 100% 29.80 in 4.0 mi Calm Calm - N/A   Overcast